owner,sensor,date,latitude,longitude,vertical_datum,wind_speed,wind_to_direction,wind_speed_of_gust,qcFlag 
TABS,ioos:station:wmo:42047:1,2012-02-01T00:00:00Z,27.8966,-93.5973,4.0,5.684091836,132.3621581,6.33,'11111222,11111222,11111222' 
TABS,ioos:station:wmo:42047:1,2012-02-01T00:30:00Z,27.8966,-93.5973,4.0,6.013667766,133.113612,6.7,'11111222,11111222,11111222' 
TABS,ioos:station:wmo:42047:1,2012-02-01T01:00:00Z,27.8966,-93.5973,4.0,5.483402229,133.0050163,6.22,'11111222,11111222,11111222' 
TABS,ioos:station:wmo:42047:1,2012-02-01T01:30:00Z,27.8966,-93.5973,4.0,5.770060658,134.7194569,6.56,'11111222,11111222,11111222' 
TABS,ioos:station:wmo:42047:1,2012-02-01T02:00:00Z,27.8966,-93.5973,4.0,5.078995964,133.4047493,5.85,'11111222,11111222,11111222' 
TABS,ioos:station:wmo:42047:1,2012-02-01T02:30:00Z,27.8966,-93.5973,4.0,4.483079299,135.1810584,5.19,'11111222,11111222,11111222' 
TABS,ioos:station:wmo:42047:1,2012-02-01T03:00:00Z,27.8966,-93.5973,4.0,4.838677505,133.3254816,5.36,'11111222,11111222,11111222' 
TABS,ioos:station:wmo:42047:1,2012-02-01T03:30:00Z,27.8966,-93.5973,4.0,5.643155146,134.2823627,6.22,'11111222,11111222,11111222' 
TABS,ioos:station:wmo:42047:1,2012-02-01T04:00:00Z,27.8966,-93.5973,4.0,5.791726858,134.2308234,6.35,'11111222,11111222,11111222' 
TABS,ioos:station:wmo:42047:1,2012-02-01T04:30:00Z,27.8966,-93.5973,4.0,5.55793127,134.7087373,6.17,'11111222,11111222,11111222' 
TABS,ioos:station:wmo:42047:1,2012-02-01T05:00:00Z,27.8966,-93.5973,4.0,6.078001316,137.0671312,6.81,'11111222,11111222,11111222' 
TABS,ioos:station:wmo:42047:1,2012-02-01T05:30:00Z,27.8966,-93.5973,4.0,5.377080993,141.1907222,6.62,'11111222,11111222,11111222' 
TABS,ioos:station:wmo:42047:1,2012-02-01T06:00:00Z,27.8966,-93.5973,4.0,4.340564479,142.2063558,4.84,'11111222,11111222,11111222' 
TABS,ioos:station:wmo:42047:1,2012-02-01T06:30:00Z,27.8966,-93.5973,4.0,4.543566881,147.2196,5.15,'11111222,11111222,11111222' 
TABS,ioos:station:wmo:42047:1,2012-02-01T07:00:00Z,27.8966,-93.5973,4.0,3.530226622,142.4811844,4.13,'11111222,11111222,11111222' 
TABS,ioos:station:wmo:42047:1,2012-02-01T07:30:00Z,27.8966,-93.5973,4.0,3.714000539,143.0995452,4.27,'11111222,11111222,11111222' 
TABS,ioos:station:wmo:42047:1,2012-02-01T08:00:00Z,27.8966,-93.5973,4.0,4.302476031,143.9827121,4.94,'11111222,11111222,11111222' 
TABS,ioos:station:wmo:42047:1,2012-02-01T08:30:00Z,27.8966,-93.5973,4.0,4.508003993,143.2066576,5.17,'11111222,11111222,11111222' 
TABS,ioos:station:wmo:42047:1,2012-02-01T09:00:00Z,27.8966,-93.5973,4.0,5.142217421,146.7428667,5.76,'11111222,11111222,11111222' 
TABS,ioos:station:wmo:42047:1,2012-02-01T09:30:00Z,27.8966,-93.5973,4.0,5.547179463,146.7685771,6.26,'11111222,11111222,11111222' 
TABS,ioos:station:wmo:42047:1,2012-02-01T10:00:00Z,27.8966,-93.5973,4.0,4.919806907,152.6539656,5.53,'11111222,11111222,11111222' 
TABS,ioos:station:wmo:42047:1,2012-02-01T10:30:00Z,27.8966,-93.5973,4.0,4.225470388,157.0153301,5.03,'11111222,11111222,11111222' 
TABS,ioos:station:wmo:42047:1,2012-02-01T11:00:00Z,27.8966,-93.5973,4.0,4.550703242,162.0829025,5.12,'11111222,11111222,11111222' 
TABS,ioos:station:wmo:42047:1,2012-02-01T11:30:00Z,27.8966,-93.5973,4.0,3.950215184,159.0877117,4.51,'11111222,11111222,11111222' 
TABS,ioos:station:wmo:42047:1,2012-02-01T12:00:00Z,27.8966,-93.5973,4.0,4.439470689,156.7847278,4.95,'11111222,11111222,11111222' 
TABS,ioos:station:wmo:42047:1,2012-02-01T12:30:00Z,27.8966,-93.5973,4.0,4.945866961,161.8583745,5.61,'11111222,11111222,11111222' 
TABS,ioos:station:wmo:42047:1,2012-02-01T13:00:00Z,27.8966,-93.5973,4.0,4.370011442,157.2492873,4.8,'11111222,11111222,11111222' 
TABS,ioos:station:wmo:42047:1,2012-02-01T13:30:00Z,27.8966,-93.5973,4.0,4.709331163,153.9249159,5.16,'11111222,11111222,11111222' 
TABS,ioos:station:wmo:42047:1,2012-02-01T14:00:00Z,27.8966,-93.5973,4.0,4.614108798,156.7690643,5.18,'11111222,11111222,11111222' 
TABS,ioos:station:wmo:42047:1,2012-02-01T14:30:00Z,27.8966,-93.5973,4.0,4.400284082,142.4793402,4.86,'11111222,11111222,11111222' 
TABS,ioos:station:wmo:42047:1,2012-02-01T15:00:00Z,27.8966,-93.5973,4.0,3.837512215,139.5447597,4.5,'11111222,11111222,11111222' 
TABS,ioos:station:wmo:42047:1,2012-02-01T15:30:00Z,27.8966,-93.5973,4.0,3.920943764,148.1343073,4.54,'11111222,11111222,11111222' 
TABS,ioos:station:wmo:42047:1,2012-02-01T16:00:00Z,27.8966,-93.5973,4.0,3.788852069,152.1501745,4.4,'11111222,11111222,11111222' 
TABS,ioos:station:wmo:42047:1,2012-02-01T16:30:00Z,27.8966,-93.5973,4.0,4.068967928,146.9350983,4.71,'11111222,11111222,11111222' 
TABS,ioos:station:wmo:42047:1,2012-02-01T17:00:00Z,27.8966,-93.5973,4.0,4.536794022,148.0618362,5.01,'11111222,11111222,11111222' 
TABS,ioos:station:wmo:42047:1,2012-02-01T17:30:00Z,27.8966,-93.5973,4.0,3.582582867,152.5769239,3.99,'11111222,11111222,11111222' 
TABS,ioos:station:wmo:42047:1,2012-02-01T18:00:00Z,27.8966,-93.5973,4.0,0.0,0.0,0.0,'11111222,11111222,11111222' 
TABS,ioos:station:wmo:42047:1,2012-02-01T18:30:00Z,27.8966,-93.5973,4.0,0.031622777,108.4353266,0.29,'11111222,11111222,11111222' 
TABS,ioos:station:wmo:42047:1,2012-02-01T19:00:00Z,27.8966,-93.5973,4.0,0.028284271,135.0003157,0.44,'11111222,11111222,11111222' 
TABS,ioos:station:wmo:42047:1,2012-02-01T19:30:00Z,27.8966,-93.5973,4.0,3.916797161,145.2958864,5.25,'11111222,11111222,11111222' 
TABS,ioos:station:wmo:42047:1,2012-02-01T20:00:00Z,27.8966,-93.5973,4.0,0.102956301,150.9456743,0.7,'11111222,11111222,11111222' 
TABS,ioos:station:wmo:42047:1,2012-02-01T20:30:00Z,27.8966,-93.5973,4.0,0.041231056,165.9639998,1.1,'11111222,11111222,11111222' 
TABS,ioos:station:wmo:42047:1,2012-02-01T21:00:00Z,27.8966,-93.5973,4.0,0.0,0.0,0.0,'11111222,11111222,11111222' 
TABS,ioos:station:wmo:42047:1,2012-02-01T21:30:00Z,27.8966,-93.5973,4.0,0.0,0.0,0.0,'11111222,11111222,11111222' 
TABS,ioos:station:wmo:42047:1,2012-02-01T22:00:00Z,27.8966,-93.5973,4.0,0.0,0.0,0.0,'11111222,11111222,11111222' 
TABS,ioos:station:wmo:42047:1,2012-02-01T22:30:00Z,27.8966,-93.5973,4.0,0.0,0.0,0.07,'11111222,11111222,11111222' 
TABS,ioos:station:wmo:42047:1,2012-02-01T23:00:00Z,27.8966,-93.5973,4.0,1.361322886,177.4740995,1.64,'11111222,11111222,11111222' 
TABS,ioos:station:wmo:42047:1,2012-02-01T23:30:00Z,27.8966,-93.5973,4.0,1.88130274,177.867847,2.08,'11111222,11111222,11111222' 
TABS,ioos:station:wmo:42047:1,2012-02-02T00:00:00Z,27.8966,-93.5973,4.0,2.235732542,175.8963446,2.78,'11111222,11111222,11111222' 
TABS,ioos:station:wmo:42047:1,2012-02-02T00:30:00Z,27.8966,-93.5973,4.0,2.297324531,167.1738653,3.01,'11111222,11111222,11111222' 
TABS,ioos:station:wmo:42047:1,2012-02-02T01:00:00Z,27.8966,-93.5973,4.0,1.050761629,81.79238186,1.5,'11111222,11111222,11111222' 
TABS,ioos:station:wmo:42047:1,2012-02-02T01:30:00Z,27.8966,-93.5973,4.0,1.496262009,98.45542882,1.71,'11111222,11111222,11111222' 
TABS,ioos:station:wmo:42047:1,2012-02-02T02:00:00Z,27.8966,-93.5973,4.0,1.95739623,85.01717114,2.33,'11111222,11111222,11111222' 
TABS,ioos:station:wmo:42047:1,2012-02-02T02:30:00Z,27.8966,-93.5973,4.0,2.444626761,99.65537544,2.84,'11111222,11111222,11111222' 
TABS,ioos:station:wmo:42047:1,2012-02-02T03:00:00Z,27.8966,-93.5973,4.0,2.932047066,100.8121165,3.2,'11111222,11111222,11111222' 
TABS,ioos:station:wmo:42047:1,2012-02-02T03:30:00Z,27.8966,-93.5973,4.0,3.364758535,108.0045404,3.76,'11111222,11111222,11111222' 
TABS,ioos:station:wmo:42047:1,2012-02-02T04:00:00Z,27.8966,-93.5973,4.0,3.665896889,111.1052102,4.05,'11111222,11111222,11111222' 
TABS,ioos:station:wmo:42047:1,2012-02-02T04:30:00Z,27.8966,-93.5973,4.0,3.343964713,110.1152283,3.77,'11111222,11111222,11111222' 
TABS,ioos:station:wmo:42047:1,2012-02-02T05:00:00Z,27.8966,-93.5973,4.0,2.482438317,115.5331677,3.13,'11111222,11111222,11111222' 
TABS,ioos:station:wmo:42047:1,2012-02-02T05:30:00Z,27.8966,-93.5973,4.0,2.642820463,121.224369,3.05,'11111222,11111222,11111222' 
TABS,ioos:station:wmo:42047:1,2012-02-02T06:00:00Z,27.8966,-93.5973,4.0,3.374151745,136.5614458,3.77,'11111222,11111222,11111222' 
TABS,ioos:station:wmo:42047:1,2012-02-02T06:30:00Z,27.8966,-93.5973,4.0,4.319780087,165.3849507,5.06,'11111222,11111222,11111222' 
TABS,ioos:station:wmo:42047:1,2012-02-02T07:00:00Z,27.8966,-93.5973,4.0,4.125724179,173.5986892,5.12,'11111222,11111222,11111222' 
TABS,ioos:station:wmo:42047:1,2012-02-02T07:30:00Z,27.8966,-93.5973,4.0,4.171198868,174.2212914,4.79,'11111222,11111222,11111222' 
TABS,ioos:station:wmo:42047:1,2012-02-02T08:00:00Z,27.8966,-93.5973,4.0,4.018009457,174.5734107,4.58,'11111222,11111222,11111222' 
TABS,ioos:station:wmo:42047:1,2012-02-02T08:30:00Z,27.8966,-93.5973,4.0,0.0,0.0,0.0,'11111222,11111222,11111222' 
TABS,ioos:station:wmo:42047:1,2012-02-02T09:00:00Z,27.8966,-93.5973,4.0,0.080622577,187.1252101,0.6,'11111222,11111222,11111222' 
TABS,ioos:station:wmo:42047:1,2012-02-02T09:30:00Z,27.8966,-93.5973,4.0,0.02,180.0002105,0.28,'11111222,11111222,11111222' 
TABS,ioos:station:wmo:42047:1,2012-02-02T10:00:00Z,27.8966,-93.5973,4.0,0.0,0.0,0.0,'11111222,11111222,11111222' 
TABS,ioos:station:wmo:42047:1,2012-02-02T10:30:00Z,27.8966,-93.5973,4.0,0.0,0.0,0.15,'11111222,11111222,11111222' 
TABS,ioos:station:wmo:42047:1,2012-02-02T11:00:00Z,27.8966,-93.5973,4.0,2.037351222,103.6273839,2.6,'11111222,11111222,11111222' 
TABS,ioos:station:wmo:42047:1,2012-02-02T11:30:00Z,27.8966,-93.5973,4.0,2.425943116,105.2969325,2.78,'11111222,11111222,11111222' 
TABS,ioos:station:wmo:42047:1,2012-02-02T12:00:00Z,27.8966,-93.5973,4.0,2.37892833,78.35903409,2.73,'11111222,11111222,11111222' 
TABS,ioos:station:wmo:42047:1,2012-02-02T12:30:00Z,27.8966,-93.5973,4.0,2.272663635,103.4863168,2.68,'11111222,11111222,11111222' 
TABS,ioos:station:wmo:42047:1,2012-02-02T13:00:00Z,27.8966,-93.5973,4.0,2.999333259,83.49063786,3.48,'11111222,11111222,11111222' 
TABS,ioos:station:wmo:42047:1,2012-02-02T13:30:00Z,27.8966,-93.5973,4.0,2.943824044,87.07886439,3.23,'11111222,11111222,11111222' 
TABS,ioos:station:wmo:42047:1,2012-02-02T14:00:00Z,27.8966,-93.5973,4.0,3.372180304,62.82670148,3.92,'11111222,11111222,11111222' 
TABS,ioos:station:wmo:42047:1,2012-02-02T14:30:00Z,27.8966,-93.5973,4.0,0.031622777,71.56467337,0.86,'11111222,11111222,11111222' 
TABS,ioos:station:wmo:42047:1,2012-02-02T15:00:00Z,27.8966,-93.5973,4.0,3.402116988,87.97821887,4.06,'11111222,11111222,11111222' 
TABS,ioos:station:wmo:42047:1,2012-02-02T15:30:00Z,27.8966,-93.5973,4.0,3.707424982,100.0979017,4.19,'11111222,11111222,11111222' 
TABS,ioos:station:wmo:42047:1,2012-02-02T16:00:00Z,27.8966,-93.5973,4.0,3.465746673,95.46425095,4.18,'11111222,11111222,11111222' 
TABS,ioos:station:wmo:42047:1,2012-02-02T16:30:00Z,27.8966,-93.5973,4.0,4.224736678,92.71382402,4.97,'11111222,11111222,11111222' 
TABS,ioos:station:wmo:42047:1,2012-02-02T17:00:00Z,27.8966,-93.5973,4.0,4.353320572,87.7615778,4.93,'11111222,11111222,11111222' 
TABS,ioos:station:wmo:42047:1,2012-02-02T17:30:00Z,27.8966,-93.5973,4.0,4.772357908,88.19842278,5.4,'11111222,11111222,11111222' 
TABS,ioos:station:wmo:42047:1,2012-02-02T18:00:00Z,27.8966,-93.5973,4.0,5.214872961,80.95271934,5.66,'11111222,11111222,11111222' 
TABS,ioos:station:wmo:42047:1,2012-02-02T18:30:00Z,27.8966,-93.5973,4.0,4.705146119,87.31961141,5.36,'11111222,11111222,11111222' 
TABS,ioos:station:wmo:42047:1,2012-02-02T19:00:00Z,27.8966,-93.5973,4.0,5.250952295,91.09163459,5.99,'11111222,11111222,11111222' 
TABS,ioos:station:wmo:42047:1,2012-02-02T19:30:00Z,27.8966,-93.5973,4.0,5.523812089,99.37745968,6.3,'11111222,11111222,11111222' 
TABS,ioos:station:wmo:42047:1,2012-02-02T20:00:00Z,27.8966,-93.5973,4.0,2.253996451,99.96420181,6.72,'11111222,11111222,11111222' 
TABS,ioos:station:wmo:42047:1,2012-02-02T20:30:00Z,27.8966,-93.5973,4.0,6.472711951,105.4107763,7.08,'11111222,11111222,11111222' 
TABS,ioos:station:wmo:42047:1,2012-02-02T21:00:00Z,27.8966,-93.5973,4.0,6.617741307,92.77202504,7.52,'11111222,11111222,11111222' 
TABS,ioos:station:wmo:42047:1,2012-02-02T21:30:00Z,27.8966,-93.5973,4.0,6.824954212,100.9810453,8.1,'11111222,11111222,11111222' 
TABS,ioos:station:wmo:42047:1,2012-02-02T22:00:00Z,27.8966,-93.5973,4.0,6.63392041,106.8237141,7.5,'11111222,11111222,11111222' 
TABS,ioos:station:wmo:42047:1,2012-02-02T22:30:00Z,27.8966,-93.5973,4.0,5.859692825,128.9044684,7.38,'11111222,11111222,11111222' 
TABS,ioos:station:wmo:42047:1,2012-02-02T23:00:00Z,27.8966,-93.5973,4.0,6.271594694,122.8288859,6.96,'11111222,11111222,11111222' 
TABS,ioos:station:wmo:42047:1,2012-02-02T23:30:00Z,27.8966,-93.5973,4.0,6.211360559,128.0694829,7.07,'11111222,11111222,11111222' 
TABS,ioos:station:wmo:42047:1,2012-02-03T00:00:00Z,27.8966,-93.5973,4.0,6.387965247,129.346533,7.36,'11111222,11111222,11111222' 
TABS,ioos:station:wmo:42047:1,2012-02-03T00:30:00Z,27.8966,-93.5973,4.0,6.581489193,128.0891047,7.37,'11111222,11111222,11111222' 
TABS,ioos:station:wmo:42047:1,2012-02-03T01:00:00Z,27.8966,-93.5973,4.0,6.593845615,128.2258835,7.4,'11111222,11111222,11111222' 
TABS,ioos:station:wmo:42047:1,2012-02-03T01:30:00Z,27.8966,-93.5973,4.0,6.88410488,133.0578369,8.1,'11111222,11111222,11111222' 
TABS,ioos:station:wmo:42047:1,2012-02-03T02:00:00Z,27.8966,-93.5973,4.0,6.738976183,130.4264051,7.98,'11111222,11111222,11111222' 
TABS,ioos:station:wmo:42047:1,2012-02-03T02:30:00Z,27.8966,-93.5973,4.0,6.44727074,128.0078183,7.24,'11111222,11111222,11111222' 
TABS,ioos:station:wmo:42047:1,2012-02-03T03:00:00Z,27.8966,-93.5973,4.0,6.762018929,127.005803,7.51,'11111222,11111222,11111222' 
TABS,ioos:station:wmo:42047:1,2012-02-03T03:30:00Z,27.8966,-93.5973,4.0,6.906142194,128.2973489,7.81,'11111222,11111222,11111222' 
TABS,ioos:station:wmo:42047:1,2012-02-03T04:00:00Z,27.8966,-93.5973,4.0,6.71303955,130.9534072,7.6,'11111222,11111222,11111222' 
TABS,ioos:station:wmo:42047:1,2012-02-03T04:30:00Z,27.8966,-93.5973,4.0,6.125520386,136.4555503,7.05,'11111222,11111222,11111222' 
TABS,ioos:station:wmo:42047:1,2012-02-03T05:00:00Z,27.8966,-93.5973,4.0,7.016224056,133.7298544,8.22,'11111222,11111222,11111222' 
TABS,ioos:station:wmo:42047:1,2012-02-03T05:30:00Z,27.8966,-93.5973,4.0,6.726024086,130.296712,7.31,'11111222,11111222,11111222' 
TABS,ioos:station:wmo:42047:1,2012-02-03T06:00:00Z,27.8966,-93.5973,4.0,7.249089598,133.9383717,8.33,'11111222,11111222,11111222' 
TABS,ioos:station:wmo:42047:1,2012-02-03T06:30:00Z,27.8966,-93.5973,4.0,7.676001563,138.0630294,8.61,'11111222,11111222,11111222' 
TABS,ioos:station:wmo:42047:1,2012-02-03T07:00:00Z,27.8966,-93.5973,4.0,7.566273852,132.4828581,8.63,'11111222,11111222,11111222' 
TABS,ioos:station:wmo:42047:1,2012-02-03T07:30:00Z,27.8966,-93.5973,4.0,6.154421175,146.4651442,6.87,'11111222,11111222,11111222' 
TABS,ioos:station:wmo:42047:1,2012-02-03T08:00:00Z,27.8966,-93.5973,4.0,5.467010152,145.5835275,6.22,'11111222,11111222,11111222' 
TABS,ioos:station:wmo:42047:1,2012-02-03T08:30:00Z,27.8966,-93.5973,4.0,5.258688049,140.7108955,5.85,'11111222,11111222,11111222' 
TABS,ioos:station:wmo:42047:1,2012-02-03T09:00:00Z,27.8966,-93.5973,4.0,5.59270954,139.9323916,6.37,'11111222,11111222,11111222' 
TABS,ioos:station:wmo:42047:1,2012-02-03T09:30:00Z,27.8966,-93.5973,4.0,4.978604222,138.1756244,5.65,'11111222,11111222,11111222' 
TABS,ioos:station:wmo:42047:1,2012-02-03T10:00:00Z,27.8966,-93.5973,4.0,5.640443245,144.8168712,6.22,'11111222,11111222,11111222' 
TABS,ioos:station:wmo:42047:1,2012-02-03T10:30:00Z,27.8966,-93.5973,4.0,6.687727566,144.432738,7.34,'11111222,11111222,11111222' 
TABS,ioos:station:wmo:42047:1,2012-02-03T11:00:00Z,27.8966,-93.5973,4.0,6.488913622,140.1269002,7.37,'11111222,11111222,11111222' 
TABS,ioos:station:wmo:42047:1,2012-02-03T11:30:00Z,27.8966,-93.5973,4.0,5.739416347,141.1534055,6.9,'11111222,11111222,11111222' 
TABS,ioos:station:wmo:42047:1,2012-02-03T12:00:00Z,27.8966,-93.5973,4.0,5.322602747,138.885267,5.9,'11111222,11111222,11111222' 
TABS,ioos:station:wmo:42047:1,2012-02-03T12:30:00Z,27.8966,-93.5973,4.0,6.174082928,142.8334369,6.87,'11111222,11111222,11111222' 
TABS,ioos:station:wmo:42047:1,2012-02-03T13:00:00Z,27.8966,-93.5973,4.0,6.823503499,140.829055,7.55,'11111222,11111222,11111222' 
TABS,ioos:station:wmo:42047:1,2012-02-03T13:30:00Z,27.8966,-93.5973,4.0,5.740400683,144.7874965,6.61,'11111222,11111222,11111222' 
TABS,ioos:station:wmo:42047:1,2012-02-03T14:00:00Z,27.8966,-93.5973,4.0,4.628541887,140.0837867,5.13,'11111222,11111222,11111222' 
TABS,ioos:station:wmo:42047:1,2012-02-03T14:30:00Z,27.8966,-93.5973,4.0,4.918099226,137.2250709,5.74,'11111222,11111222,11111222' 
TABS,ioos:station:wmo:42047:1,2012-02-03T15:00:00Z,27.8966,-93.5973,4.0,4.059408824,134.0022347,4.66,'11111222,11111222,11111222' 
TABS,ioos:station:wmo:42047:1,2012-02-03T15:30:00Z,27.8966,-93.5973,4.0,4.017810349,140.0486636,4.59,'11111222,11111222,11111222' 
TABS,ioos:station:wmo:42047:1,2012-02-03T16:00:00Z,27.8966,-93.5973,4.0,4.384883123,144.2803397,5.27,'11111222,11111222,11111222' 
TABS,ioos:station:wmo:42047:1,2012-02-03T16:30:00Z,27.8966,-93.5973,4.0,5.068984119,140.1223712,5.88,'11111222,11111222,11111222' 
TABS,ioos:station:wmo:42047:1,2012-02-03T17:00:00Z,27.8966,-93.5973,4.0,4.387824062,140.1780136,4.81,'11111222,11111222,11111222' 
TABS,ioos:station:wmo:42047:1,2012-02-03T17:30:00Z,27.8966,-93.5973,4.0,3.417133301,141.6547252,3.86,'11111222,11111222,11111222' 
TABS,ioos:station:wmo:42047:1,2012-02-03T18:00:00Z,27.8966,-93.5973,4.0,3.508646463,136.6171022,3.82,'11111222,11111222,11111222' 
TABS,ioos:station:wmo:42047:1,2012-02-03T18:30:00Z,27.8966,-93.5973,4.0,4.003823173,136.6195494,4.5,'11111222,11111222,11111222' 
TABS,ioos:station:wmo:42047:1,2012-02-03T19:00:00Z,27.8966,-93.5973,4.0,4.306564756,135.6588573,4.9,'11111222,11111222,11111222' 
TABS,ioos:station:wmo:42047:1,2012-02-03T19:30:00Z,27.8966,-93.5973,4.0,4.116430493,130.0732173,4.78,'11111222,11111222,11111222' 
TABS,ioos:station:wmo:42047:1,2012-02-03T20:00:00Z,27.8966,-93.5973,4.0,5.23138605,130.9698853,5.77,'11111222,11111222,11111222' 
TABS,ioos:station:wmo:42047:1,2012-02-03T20:30:00Z,27.8966,-93.5973,4.0,5.986225856,126.3725212,6.75,'11111222,11111222,11111222' 
TABS,ioos:station:wmo:42047:1,2012-02-03T21:00:00Z,27.8966,-93.5973,4.0,6.916212837,134.1801886,7.93,'11111222,11111222,11111222' 
TABS,ioos:station:wmo:42047:1,2012-02-03T21:30:00Z,27.8966,-93.5973,4.0,6.443795465,133.5540808,6.99,'11111222,11111222,11111222' 
TABS,ioos:station:wmo:42047:1,2012-02-03T22:00:00Z,27.8966,-93.5973,4.0,6.116510443,134.8016033,6.65,'11111222,11111222,11111222' 
TABS,ioos:station:wmo:42047:1,2012-02-03T22:30:00Z,27.8966,-93.5973,4.0,6.775027675,135.9571477,7.6,'11111222,11111222,11111222' 
TABS,ioos:station:wmo:42047:1,2012-02-03T23:00:00Z,27.8966,-93.5973,4.0,5.629786852,129.8840826,6.31,'11111222,11111222,11111222' 
TABS,ioos:station:wmo:42047:1,2012-02-03T23:30:00Z,27.8966,-93.5973,4.0,5.373983625,128.4270279,6.06,'11111222,11111222,11111222' 
TABS,ioos:station:wmo:42047:1,2012-02-04T00:00:00Z,27.8966,-93.5973,4.0,6.051049496,129.6361705,6.6,'11111222,11111222,11111222' 
TABS,ioos:station:wmo:42047:1,2012-02-04T00:30:00Z,27.8966,-93.5973,4.0,5.752642871,127.7268141,6.53,'11111222,11111222,11111222' 
TABS,ioos:station:wmo:42047:1,2012-02-04T01:00:00Z,27.8966,-93.5973,4.0,5.468546425,131.5903582,6.22,'11111222,11111222,11111222' 
TABS,ioos:station:wmo:42047:1,2012-02-04T01:30:00Z,27.8966,-93.5973,4.0,5.36730845,129.8605703,6.21,'11111222,11111222,11111222' 
TABS,ioos:station:wmo:42047:1,2012-02-04T02:00:00Z,27.8966,-93.5973,4.0,5.459496314,129.8730842,6.14,'11111222,11111222,11111222' 
TABS,ioos:station:wmo:42047:1,2012-02-04T02:30:00Z,27.8966,-93.5973,4.0,5.643580424,133.995232,6.28,'11111222,11111222,11111222' 
TABS,ioos:station:wmo:42047:1,2012-02-04T03:00:00Z,27.8966,-93.5973,4.0,5.779766431,136.7530015,6.4,'11111222,11111222,11111222' 
TABS,ioos:station:wmo:42047:1,2012-02-04T03:30:00Z,27.8966,-93.5973,4.0,5.413243021,141.9025207,6.03,'11111222,11111222,11111222' 
TABS,ioos:station:wmo:42047:1,2012-02-04T04:00:00Z,27.8966,-93.5973,4.0,5.307551224,138.7432952,5.78,'11111222,11111222,11111222' 
TABS,ioos:station:wmo:42047:1,2012-02-04T04:30:00Z,27.8966,-93.5973,4.0,5.042072986,134.2771272,5.53,'11111222,11111222,11111222' 
TABS,ioos:station:wmo:42047:1,2012-02-04T05:00:00Z,27.8966,-93.5973,4.0,5.717665608,141.7473928,6.32,'11111222,11111222,11111222' 
TABS,ioos:station:wmo:42047:1,2012-02-04T05:30:00Z,27.8966,-93.5973,4.0,5.789110467,147.2710074,6.61,'11111222,11111222,11111222' 
TABS,ioos:station:wmo:42047:1,2012-02-04T06:00:00Z,27.8966,-93.5973,4.0,6.127846277,152.3897965,6.85,'11111222,11111222,11111222' 
TABS,ioos:station:wmo:42047:1,2012-02-04T06:30:00Z,27.8966,-93.5973,4.0,6.238493408,155.5715147,6.89,'11111222,11111222,11111222' 
TABS,ioos:station:wmo:42047:1,2012-02-04T07:00:00Z,27.8966,-93.5973,4.0,6.138615479,150.6374412,7.0,'11111222,11111222,11111222' 
TABS,ioos:station:wmo:42047:1,2012-02-04T07:30:00Z,27.8966,-93.5973,4.0,5.352690912,142.2098083,5.83,'11111222,11111222,11111222' 
TABS,ioos:station:wmo:42047:1,2012-02-04T08:00:00Z,27.8966,-93.5973,4.0,6.308153454,142.7307529,7.33,'11111222,11111222,11111222' 
TABS,ioos:station:wmo:42047:1,2012-02-04T08:30:00Z,27.8966,-93.5973,4.0,5.855365061,152.209833,6.82,'11111222,11111222,11111222' 
TABS,ioos:station:wmo:42047:1,2012-02-04T09:00:00Z,27.8966,-93.5973,4.0,5.190616534,156.4972985,6.02,'11111222,11111222,11111222' 
TABS,ioos:station:wmo:42047:1,2012-02-04T09:30:00Z,27.8966,-93.5973,4.0,5.15800349,159.4572144,5.54,'11111222,11111222,11111222' 
TABS,ioos:station:wmo:42047:1,2012-02-04T10:00:00Z,27.8966,-93.5973,4.0,5.485471721,158.3928107,6.03,'11111222,11111222,11111222' 
TABS,ioos:station:wmo:42047:1,2012-02-04T10:30:00Z,27.8966,-93.5973,4.0,6.5840565,161.1250011,7.94,'11111222,11111222,11111222' 
TABS,ioos:station:wmo:42047:1,2012-02-04T11:00:00Z,27.8966,-93.5973,4.0,5.711129485,161.3115051,6.34,'11111222,11111222,11111222' 
TABS,ioos:station:wmo:42047:1,2012-02-04T11:30:00Z,27.8966,-93.5973,4.0,4.757909205,158.9368113,5.95,'11111222,11111222,11111222' 
TABS,ioos:station:wmo:42047:1,2012-02-04T12:00:00Z,27.8966,-93.5973,4.0,5.139426038,154.5321319,6.06,'11111222,11111222,11111222' 
TABS,ioos:station:wmo:42047:1,2012-02-04T12:30:00Z,27.8966,-93.5973,4.0,5.871728877,158.4162917,6.63,'11111222,11111222,11111222' 
TABS,ioos:station:wmo:42047:1,2012-02-04T13:00:00Z,27.8966,-93.5973,4.0,4.594268168,158.6851816,5.49,'11111222,11111222,11111222' 
TABS,ioos:station:wmo:42047:1,2012-02-04T13:30:00Z,27.8966,-93.5973,4.0,3.436815386,147.2350106,4.14,'11111222,11111222,11111222' 
TABS,ioos:station:wmo:42047:1,2012-02-04T14:00:00Z,27.8966,-93.5973,4.0,3.51967328,153.8720285,4.0,'11111222,11111222,11111222' 
TABS,ioos:station:wmo:42047:1,2012-02-04T14:30:00Z,27.8966,-93.5973,4.0,2.990551789,173.2791966,3.5,'11111222,11111222,11111222' 
TABS,ioos:station:wmo:42047:1,2012-02-04T15:00:00Z,27.8966,-93.5973,4.0,3.45210081,173.5134039,3.94,'11111222,11111222,11111222' 
TABS,ioos:station:wmo:42047:1,2012-02-04T15:30:00Z,27.8966,-93.5973,4.0,3.538417725,163.9213995,4.22,'11111222,11111222,11111222' 
TABS,ioos:station:wmo:42047:1,2012-02-04T16:00:00Z,27.8966,-93.5973,4.0,3.994446144,156.3873145,4.67,'11111222,11111222,11111222' 
TABS,ioos:station:wmo:42047:1,2012-02-04T16:30:00Z,27.8966,-93.5973,4.0,4.500055555,156.2834027,5.03,'11111222,11111222,11111222' 
TABS,ioos:station:wmo:42047:1,2012-02-04T17:00:00Z,27.8966,-93.5973,4.0,3.83547911,156.9782093,4.2,'11111222,11111222,11111222' 
TABS,ioos:station:wmo:42047:1,2012-02-04T17:30:00Z,27.8966,-93.5973,4.0,2.582130903,174.444185,2.97,'11111222,11111222,11111222' 
TABS,ioos:station:wmo:42047:1,2012-02-04T18:00:00Z,27.8966,-93.5973,4.0,1.174563749,222.9300794,1.48,'11111222,11111222,11111222' 
TABS,ioos:station:wmo:42047:1,2012-02-04T18:30:00Z,27.8966,-93.5973,4.0,1.541492783,191.6016949,1.95,'11111222,11111222,11111222' 
TABS,ioos:station:wmo:42047:1,2012-02-04T19:00:00Z,27.8966,-93.5973,4.0,1.236486959,198.8747161,1.51,'11111222,11111222,11111222' 